User: anonymous   Login
Location: Codford Saint Peter
(51.1597°N, 2.0531°W)
Time: 23:46:37
(UTC+00:00)
Language:

DMSP B5D2-2 - Orbit

View from above orbital plane
View from above orbital plane
View from above satellite
View from above satellite

Ground track
Ground track

The orbit data is extracted from the following two-line orbital elements,

1 14506U 83113A   20332.62217884 +.00000061 +00000-0 +40951-4 0  9990
2 14506 098.3128 177.4100 0012356 100.4089 327.7278 14.28120943925969
Epoch (UTC): 27 November 2020 14:55:56
Eccentricity: 0.0012356
inclination: 98.3128°
perigee height: 789 km
apogee height: 807 km
right ascension of ascending node: 177.4100°
argument of perigee: 100.4089°
revolutions per day: 14.28120943
mean anomaly at epoch: 327.7278°
orbit number at epoch: 92596

The dashed part of the orbit path shows where the satellite is in the earth's shadow,  

DLR